This is the latest recevied weather packets stored in our database for station/object KD7AWQ. If no packets are shown the sender has not sent any weather packets the latest 10 day(s).
| Time | Temp. | Humidity | Pressure | Rain* | Wind** | Luminosity | Snow |
|---|---|---|---|---|---|---|---|
| 1787789920 | 37.78° C | 14% | 1186.3 hPa | 0 mm | - | 294 W/m² | - |
| 1787789619 | 37.22° C | 15% | 1186.4 hPa | 0 mm | - | 297 W/m² | - |
| 1787789319 | 36.67° C | 15% | 1186.3 hPa | 0 mm | - | 299 W/m² | - |
| 1787789014 | 36.11° C | 17% | 1186.2 hPa | 0 mm | - | 189 W/m² | - |
| 1787788712 | 36.11° C | 17% | 1186.3 hPa | 0 mm | - | 174 W/m² | - |
| 1787788412 | 36.11° C | 16% | 1186.3 hPa | 0 mm | - | 177 W/m² | - |
| 1787788107 | 36.11° C | 15% | 1186.5 hPa | 0 mm | - | 179 W/m² | - |
| 1787787802 | 36.11° C | 16% | 1186.3 hPa | 0 mm | - | 184 W/m² | - |
| 1787787501 | 36.67° C | 18% | 1186.5 hPa | 0 mm | - | 187 W/m² | - |
| 1787787200 | 36.67° C | 16% | 1186.5 hPa | 0 mm | - | 184 W/m² | - |
| 1787786895 | 36.67° C | 15% | 1186.3 hPa | 0 mm | - | 176 W/m² | - |
| 1787786590 | 36.67° C | 16% | 1186.3 hPa | 0 mm | - | 169 W/m² | - |
| 1787786284 | 36.67° C | 15% | 1186.4 hPa | 0 mm | - | 171 W/m² | - |
| 1787785981 | 36.67° C | 15% | 1186.4 hPa | 0 mm | - | 180 W/m² | - |
| 1787785676 | 36.67° C | 16% | 1186.4 hPa | 0 mm | - | 196 W/m² | - |
| 1787785376 | 36.67° C | 16% | 1186.5 hPa | 0 mm | - | 220 W/m² | - |
| 1787785075 | 36.67° C | 16% | 1186.5 hPa | 0 mm | - | 233 W/m² | - |
| 1787784770 | 36.11° C | 18% | 1186.6 hPa | 0 mm | - | 255 W/m² | - |
| 1787784470 | 36.11° C | 17% | 1186.7 hPa | 0 mm | - | 293 W/m² | - |
| 1787784169 | 35.56° C | 19% | 1186.5 hPa | 0 mm | - | 269 W/m² | - |
| 1787783866 | 35.56° C | 17% | 1186.4 hPa | 0 mm | - | 254 W/m² | - |
| 1787783561 | 35.56° C | 17% | 1186.6 hPa | 0 mm | - | 229 W/m² | - |
| 1787783256 | 35.56° C | 18% | 1186.7 hPa | 0 mm | - | 218 W/m² | - |
| 1787782951 | 35° C | 18% | 1187 hPa | 0 mm | - | 208 W/m² | - |
| 1787782650 | 35° C | 19% | 1186.9 hPa | 0 mm | - | 209 W/m² | - |
* Rain latest hour (hover to see other rain measurements)
** Current wind speed in m/s (hover to see current wind gust speed)